Regional Weather Roundup
Issued by NWS

Home | Current Version | Previous Version | Text Only | Print | Product List | Glossary On
Versions: 1 2 3 4 5 6 7 8 9 10 11 12 13 14 15 16 17 18 19 20 21 22 23 24 25 26 27 28 29 30 31 32 33 34 35 36 37 38 39 40 41 42 43 44 45 46 47 48 49 50
000
ASUS43 KDTX 251710
RWRMI
MICHIGAN HOURLY REGIONAL WEATHER ROUNDUP
NATIONAL WEATHER SERVICE DETROIT/PONTIAC MI
100 PM EDT MON MAY 25 2015

NOTE: "FAIR" INDICATES FEW OR NO CLOUDS BELOW 12,000 FEET WITH NO
SIGNIFICANT WEATHER AND/OR OBSTRUCTION TO VISIBILITY.

MIZ047>049-052>055-059>063-066>070-074>076-081>083-251800-
SOUTHEAST LOWER MICHIGAN

CITY           SKY/WX    TMP DP  RH WIND       PRES   REMARKS
ADRIAN         PTSUNNY   78  62  57 SW23G38   29.99F
ALMA           LGT RAIN  68  66  93 S15G22    29.90R
ANN ARBOR      CLOUDY    77  63  61 SW16G33   29.98F
BAD AXE        CLOUDY    76  62  60 SW14G23   29.92F
CARO           CLOUDY    76  64  66 S17G23    29.92S
DETROIT CITY   CLOUDY    77  62  59 SW17G28   29.99S
DETROIT        CLOUDY    82  63  52 S23G30    29.99F
FLINT          PTSUNNY   80  64  58 S16G22    29.93F
GROSSE ILE     PTSUNNY   75  64  69 S15       29.98F
HILLSDALE      RAIN      69  68  96 SW16G23   30.01R
HOWELL         PTSUNNY   79  62  56 S12G23    29.95F

CITY           SKY/WX    TMP DP  RH WIND       PRES   REMARKS
JACKSON        RAIN      70  65  84 SW21G32   29.97S
LAMBERTVILLE   CLOUDY    81  61  50 SW9G16    30.00F
LANSING        CLOUDY    78  62  57 S23G35    29.92F
LAPEER         CLOUDY    76  61  58 SW12G23   29.95F
MASON          CLOUDY    74  61  63 S8G23     29.94F
MONROE         CLOUDY    81  63  54 SW14G25   29.98F
MT. CLEMENS    CLOUDY    77  64  62 SW20G29   29.97R
PONTIAC        CLOUDY    76  63  64 S15G23    29.97S
PORT HOPE        N/A     79  62  56 S9G18     29.89F
PORT HURON     CLOUDY    77  63  61 SW15G26   29.98S
TRI CITIES     CLOUDY    78  63  59 S14G22    29.89F
MIDLAND        LGT RAIN  77  63  62 S14       29.87F
TROY           CLOUDY    77  62  59 SW12G26   30.00S
SAGINAW HB     CLOUDY    77  63  61 S15       29.90S
$$
MIZ043>046-050>051-056>058-064>065-071>073-077>080-251800-
SOUTHWEST LOWER MICHIGAN

CITY           SKY/WX    TMP DP  RH WIND       PRES   REMARKS
BATTLE CREEK   LGT RAIN  74  66  76 SW21G32   29.94F
BENTON HARBOR  CLOUDY    70  65  84 W16       29.91R
BIG RAPIDS     CLOUDY    74  63  69 SW13G30   29.85F
COLDWATER      CLOUDY    73  65  75 SW15G29   29.97F
FREMONT        CLOUDY    74  64  70 SW24G38   29.85S
HOLLAND        PTSUNNY   72  64  76 SW23G44   29.90R
GRAND RAPIDS   PTSUNNY   76  65  68 SW22G33   29.89F
IONIA          PTSUNNY   75  68  79 SW18G29   29.89F
KALAMAZOO      MOSUNNY   77  65  66 SW25G37   29.92S
LUDINGTON      LGT RAIN  71  66  84 S24G31    29.81S
MARSHALL       CLOUDY    72  64  78 S15G22    29.95S
MOUNT PLEASANT PTSUNNY   73  65  78 S17G24    29.88R
MUSKEGON       LGT RAIN  71  62  73 S22G37    29.87R
SOUTH HAVEN    CLOUDY    70  63  78 SW14G23   29.90R
$$
MIZ016>042-251800-
NORTHERN LOWER MICHIGAN

CITY           SKY/WX    TMP DP  RH WIND       PRES   REMARKS
ALPENA         CLOUDY    66  61  84 SE6       29.86F
BEAVER ISLAND  CLOUDY    63  62  97 SE6       29.78F
BELLAIRE       CLOUDY    72  64  76 S9        29.80F
CADILLAC       CLOUDY    71  65  81 S15       29.84S
CHARLEVOIX     CLOUDY    71  66  84 S9G17     29.81F
FRANKFORT      CLOUDY    70  62  76 S17G26    29.78F
GAYLORD        LGT RAIN  67  65  93 S8        29.84F
GRAYLING       CLOUDY    72  64  78 S7        29.84F
HARBOR SPRINGS CLOUDY    67  64  90 E6        29.81F
HOUGHTON LAKE  LGT RAIN  69  64  84 S9        29.86F
MANISTEE       CLOUDY    70  63  78 SW17G28   29.81S
OSCODA         LGT RAIN  72  63  71 S8        29.87F
PELLSTON       CLOUDY    65  62  90 SE7       29.81F
ROGERS CITY    CLOUDY    54  53  99 E5        29.86F
TRAVERSE CITY  CLOUDY    75  64  68 S12G25    29.78F
$$
MIZ007>008-015-251800-
EASTERN UPPER MICHIGAN

CITY           SKY/WX    TMP DP  RH WIND       PRES   REMARKS
KINROSS        CLOUDY    55  55 100 SE13      29.83F
MACKINAC ISLAN FOG       46  46 100 E9        29.82F VSB 1
NEWBERRY       LGT RAIN  56  56  98 SE8G18    29.78F
S. S. MARIE    HVY RAIN  56  54  93 SE13G21   29.84F FOG
MUNISING         N/A     60  57  89 VRB6G17   29.72F
$$
MIZ004>006-011>014-085-251800-
CENTRAL UPPER MICHIGAN

CITY           SKY/WX    TMP DP  RH WIND       PRES   REMARKS
MANISTIQUE     CLOUDY    55  54  97 E7        29.76F FOG
ESCANABA       CLOUDY    52  48  87 SE9       29.71F
MENOMINEE      CLOUDY    61  57  88 S9        29.69S
SAWYER-GWINN   RAIN      57  55  94 S6        29.73F
$$
MIZ001>003-009>011-084-251800-
WESTERN UPPER MICHIGAN

CITY           SKY/WX    TMP DP  RH WIND       PRES   REMARKS
IRON MOUNTAIN  LGT RAIN  58  56  93 SE3       29.69F FOG
HOUGHTON       RAIN      49  48  97 E14       29.71F VSB 3/4
COPPER HARBOR    N/A     54  52  93 SE9       29.74F
IRONWOOD       CLOUDY    61  61 100 CALM      29.64S
$$

ABBREVIATIONS USED IN REMARKS
   TC - TEMPERATURE IN CELSIUS
  WCI - WIND CHILL INDEX
   HX - HEAT INDEX
  VSB - VISIBILITY




USA.gov is the U.S. government's official web portal to all federal, state and local government web resources and services.